Simultaneous Nadir Overpasses (SNOs) Predictions

Prediction of SNOs between FY3D and METOP-C Satellite Orbit:

Table of predicted SNOs for the next 14.0 days since TLE Epoch: 9/25/2021
Index Date (FY3D) Time (FY3D) Lat,Lon (FY3D) SZA (FY3D ) Date (METOP-C) Time (METOP-C) Lat,Lon (METOP-C) SZA (METOP-C ) Distance(km) Time Diff (sec)
1 09/30/2021 19:07:44 74.35,-115.00 77.45 09/30/2021 19:08:50 74.30,-111.85 77.34 94.82 66
2 09/30/2021 19:58:27 -74.34, 52.34 102.55 09/30/2021 19:59:33 -74.27, 55.39 102.69 92.13 66
3 09/30/2021 20:49:08 74.11,-139.75 77.22 09/30/2021 20:50:17 74.03,-137.86 77.10 58.32 69
4 09/30/2021 21:39:50 -74.05, 27.71 102.83 09/30/2021 21:41:00 -74.00, 29.39 102.92 51.63 70
5 09/30/2021 22:30:31 73.82,-164.40 76.94 09/30/2021 22:31:44 73.76,-163.85 76.87 18.19 73
6 09/30/2021 23:21:14 -73.81, 2.93 103.06 09/30/2021 23:22:27 -73.73, 3.40 103.16 17.23 73
7 10/01/2021 00:11:57 73.67, 170.58 76.82 10/01/2021 00:13:07 73.68, 170.63 76.82 2.22 70
8 10/01/2021 01:02:40 -73.67, -22.09 103.18 10/01/2021 01:03:50 -73.65, -22.11 103.20 1.70 70
9 10/01/2021 01:53:26 73.68, 145.20 76.85 10/01/2021 01:54:29 73.66, 145.24 76.83 2.31 63
10 10/01/2021 02:44:09 -73.67, -47.47 103.15 10/01/2021 02:45:11 -73.68, -47.39 103.15 2.65 62
11 10/01/2021 03:34:54 73.63, 119.93 76.83 10/01/2021 03:35:51 73.64, 119.84 76.83 2.86 57
12 10/01/2021 04:25:38 -73.68, -72.85 103.12 10/01/2021 04:26:33 -73.66, -72.79 103.14 3.05 55
13 10/01/2021 05:16:23 73.64, 94.55 76.86 10/01/2021 05:17:12 73.66, 94.56 76.88 2.90 49
14 10/01/2021 06:07:06 -73.63, -98.12 103.14 10/01/2021 06:07:55 -73.63, -98.18 103.14 2.07 49
15 10/01/2021 06:57:52 73.64, 69.17 76.89 10/01/2021 06:58:34 73.64, 69.17 76.89 0.31 42
16 10/01/2021 07:48:35 -73.64,-123.50 103.10 10/01/2021 07:49:16 -73.66,-123.46 103.09 2.77 41
17 10/01/2021 08:39:21 73.65, 43.79 76.92 10/01/2021 08:39:56 73.61, 43.77 76.89 3.49 35
18 10/01/2021 09:30:04 -73.64,-148.88 103.07 10/01/2021 09:30:38 -73.64,-148.86 103.08 0.84 34
19 10/01/2021 10:20:50 73.65, 18.41 76.96 10/01/2021 10:21:17 73.64, 18.49 76.94 2.72 27
20 10/01/2021 11:11:33 -73.64,-174.26 103.04 10/01/2021 11:12:00 -73.61,-174.25 103.08 3.68 27
21 10/01/2021 12:02:18 73.60, -6.85 76.94 10/01/2021 12:02:39 73.62, -6.90 76.95 2.10 21
22 10/01/2021 12:53:02 -73.65, 160.36 103.01 10/01/2021 12:53:21 -73.64, 160.47 103.02 3.54 19
23 10/01/2021 13:43:47 73.61, -32.23 76.97 10/01/2021 13:44:01 73.59, -32.30 76.95 2.78 14
24 10/01/2021 14:34:30 -73.60, 135.10 103.03 10/01/2021 14:34:43 -73.61, 135.08 103.02 1.39 13
25 10/01/2021 15:25:16 73.61, -57.61 77.00 10/01/2021 15:25:22 73.62, -57.58 77.00 1.20 6
26 10/01/2021 16:15:59 -73.61, 109.72 103.00 10/01/2021 16:16:05 -73.59, 109.68 103.02 2.35 6
27 10/01/2021 17:06:45 73.62, -82.99 77.03 10/01/2021 17:06:44 73.59, -82.97 77.01 2.65 1
28 10/01/2021 17:57:28 -73.61, 84.34 102.97 10/01/2021 17:57:26 -73.62, 84.40 102.96 1.94 2
29 10/01/2021 18:48:13 73.57,-108.25 77.01 10/01/2021 18:48:06 73.57,-108.37 77.01 3.56 7
30 10/01/2021 19:38:57 -73.62, 58.96 102.93 10/01/2021 19:38:48 -73.59, 59.01 102.96 3.03 9
31 10/01/2021 20:29:42 73.58,-133.63 77.04 10/01/2021 20:29:27 73.60,-133.65 77.06 2.22 15
32 10/01/2021 21:20:25 -73.57, 33.70 102.95 10/01/2021 21:20:10 -73.57, 33.61 102.95 2.69 15
33 10/01/2021 22:11:11 73.58,-159.01 77.07 10/01/2021 22:10:49 73.57,-159.04 77.07 1.32 22
34 10/01/2021 23:01:54 -73.58, 8.32 102.92 10/01/2021 23:01:31 -73.59, 8.33 102.90 2.18 23
35 10/01/2021 23:52:40 73.59, 175.61 77.11 10/01/2021 23:52:10 73.60, 175.68 77.12 2.68 30
36 10/02/2021 00:43:23 -73.58, -17.06 102.89 10/02/2021 00:42:53 -73.57, -17.06 102.90 0.98 30
37 10/02/2021 01:34:09 73.59, 150.23 77.14 10/02/2021 01:33:32 73.57, 150.28 77.12 2.50 37
38 10/02/2021 02:24:52 -73.58, -42.44 102.86 10/02/2021 02:24:14 -73.60, -42.34 102.85 3.48 38
39 10/02/2021 03:15:37 73.54, 124.96 77.12 10/02/2021 03:14:54 73.55, 124.89 77.13 2.41 43
40 10/02/2021 04:06:21 -73.59, -67.82 102.83 10/02/2021 04:05:36 -73.57, -67.74 102.84 3.19 45
41 10/02/2021 04:57:06 73.55, 99.58 77.15 10/02/2021 04:56:15 73.58, 99.61 77.18 3.13 51
42 10/02/2021 05:47:49 -73.54, -93.09 102.85 10/02/2021 05:46:58 -73.55, -93.13 102.84 1.55 51
43 10/02/2021 06:38:35 73.55, 74.20 77.18 10/02/2021 06:37:37 73.55, 74.21 77.18 0.38 58
44 10/02/2021 07:29:18 -73.55,-118.47 102.82 10/02/2021 07:28:20 -73.53,-118.52 102.83 3.03 58
45 10/02/2021 08:20:04 73.56, 48.82 77.21 10/02/2021 08:18:59 73.53, 48.82 77.19 3.31 65
46 10/02/2021 09:10:47 -73.55,-143.85 102.78 10/02/2021 09:09:41 -73.55,-143.80 102.78 1.31 66
47 10/02/2021 10:01:33 73.56, 23.44 77.24 10/02/2021 10:00:20 73.55, 23.54 77.24 3.16 73
48 10/02/2021 10:52:16 -73.56,-169.23 102.75 10/02/2021 10:51:03 -73.53,-169.20 102.78 3.23 73
49 10/02/2021 11:42:58 73.37, -1.48 77.07 10/02/2021 11:41:45 73.38, -2.20 77.10 22.90 73
50 10/02/2021 12:33:41 -73.36, 165.85 102.93 10/02/2021 12:32:28 -73.35, 165.07 102.92 24.91 73
51 10/02/2021 13:24:21 73.07, -26.19 76.79 10/02/2021 13:23:12 73.10, -28.14 76.86 63.38 69
52 10/02/2021 14:15:04 -73.07, 141.14 103.21 10/02/2021 14:13:55 -73.08, 139.13 103.15 65.13 69



Historial Predications of SNOs between FY3D and METOP-C
